Regional Weather Roundup
Issued by NWS Glasgow, MT

Home | Current Version | Previous Version | Text Only | Print | Product List | Glossary On
Versions: 1 2 3 4 5 6 7 8 9 10 11 12 13 14 15 16 17 18 19 20 21 22 23 24 25 26 27
000
ASUS45 KGGW 040315
RWRGGW
HOURLY REGIONAL WEATHER ROUNDUP FOR NORTHEAST MONTANA
NATIONAL WEATHER SERVICE GLASGOW MONTANA
800 PM MST SAT DEC 03 2016

NOTE: "FAIR" INDICATES FEW OR NO CLOUDS BELOW 12,000 FEET WITH NO
SIGNIFICANT WEATHER AND/OR OBSTRUCTIONS TO VISISBILITY.

NORTHEAST MONTANA


CITY           SKY/WX    TMP DP  RH WIND       PRES   REMARKS
GLASGOW        CLEAR     30  26  85 W16       29.80S
PLENTYWOOD       N/A     33  32  96 NW8G18      N/A
WOLF POINT     CLEAR     33  29  85 W9        29.80R
JORDAN           N/A     28  21  75 W3        29.84S
WINNETT          N/A     35  22  58 W8G17       N/A
SIDNEY         CLOUDY    37  31  78 W13       29.77F
GLENDIVE       PTCLDY    32  26  78 W13       29.80S
MALTA            N/A     31  27  85 SW7         N/A
SCOBEY           N/A     32  25  76 W8        29.74S

FORT PECK REPORTS


CITY           SKY/WX    TMP DP  RH WIND       PRES   REMARKS
FORT PECK        N/A     33  28  81 W16G24      N/A
THE PINES        N/A     34  27  75 SW2         N/A

SOUTHEAST MONTANA


CITY           SKY/WX    TMP DP  RH WIND       PRES   REMARKS
BILLINGS       PTCLDY    33  24  69 SW14      29.93F
MILES CITY     MOCLDY    34  21  59 W12       29.86S
BAKER          PTCLDY    32  25  75 W14       29.83F
LIVINGSTON     CLOUDY    35  16  45 SW20G30   29.95F

CENTRAL MONTANA


CITY           SKY/WX    TMP DP  RH WIND       PRES   REMARKS
HAVRE          CLEAR     32  23  69 SW9       29.86S
LEWISTOWN      PTCLDY    26  17  68 SW12      29.89S
GREAT FALLS    CLOUDY    30  18  60 SW13      29.91F
CUT BANK       CLOUDY    30  21  69 W18       29.85F
HELENA         CLOUDY    37  21  52 W8        30.00S
BUTTE          CLOUDY    30  16  56 W14G23    29.99F
BOZEMAN        CLOUDY    34  19  54 SW9       30.00F

WESTERN MONTANA


CITY           SKY/WX    TMP DP  RH WIND       PRES   REMARKS
MISSOULA       CLOUDY    34  29  82 N6        30.06F
KALISPELL      NOT AVBL

NORTH DAKOTA


CITY           SKY/WX    TMP DP  RH WIND       PRES   REMARKS
WILLISTON      CLOUDY    34  31  88 W13       29.74S
DICKINSON      MOCLDY    32  28  85 W17       29.75S
MINOT          LGT SNOW  28  26  92 S8        29.73F FOG
BISMARCK       CLOUDY    26  25  96 S3        29.81F

SOUTHERN SASKATCHEWAN


CITY           SKY/WX    TMP DP  RH WIND       PRES   REMARKS
REGINA         CLOUDY    23  23 100 NW15      29.72R
ESTEVAN        FLURRIES  30  27  86 W12       29.70S
SWIFT CURRENT  CLOUDY    27  27 100 W9        29.74R





USA.gov is the U.S. government's official web portal to all federal, state and local government web resources and services.